Regional Weather Roundup
Issued by NWS

Home | Current Version | Previous Version | Text Only | Print | Product List | Glossary Off
Versions: 1 2 3 4 5 6 7 8 9 10 11 12 13 14 15 16 17 18 19 20 21 22 23 24 25 26 27 28 29 30 31 32 33 34 35 36 37 38 39 40 41 42 43 44 45 46 47 48 49 50

000
ASUS43 KFSD 291310
RWRSD

WEATHER ROUNDUP FOR SOUTH DAKOTA
NATIONAL WEATHER SERVICE SIOUX FALLS SD
800 AM CDT WED JUL 29 2015

NOTE: "FAIR" INDICATES FEW OR NO CLOUDS BELOW 12,000 FEET WITH NO
SIGNIFICANT WEATHER AND/OR OBSTRUCTIONS TO VISIBILITY.


SDZ001>005-009-010-012>017-291400-
NORTHWEST AND NORTH CENTRAL SOUTH DAKOTA

CITY           SKY/WX    TMP DP  RH WIND       PRES   REMARKS
BUFFALO          N/A     55  40  56 W9        30.11R
FAITH            N/A     60  39  45 W16       30.15R
MOBRIDGE       SUNNY     64  47  53 W12       30.04R
$$

SDZ012>016-024>037-041>051-057-063-072>074-291400-
SOUTHWEST AND SOUTH CENTRAL SOUTH DAKOTA

CITY           SKY/WX    TMP DP  RH WIND       PRES   REMARKS
RAPID CTY ARPT SUNNY     60  43  53 W10       30.24S
PIERRE         SUNNY     64  44  48 W14       30.11R
CUSTER         SUNNY     52  33  48 NW7       30.35R
ELLSWORTH AFB  SUNNY     60  42  50 W10       30.23R
PHILIP         SUNNY     57  49  74 W9        30.18R
PINE RIDGE     SUNNY     49  44  83 CALM      30.29R
SPEARFISH      FAIR      63  37  39 W13       30.26S
WINNER         FAIR      64  45  49 SW8       30.18R
$$

SDZ004>011-016>023-039-040-291400-
NORTHEAST SOUTH DAKOTA

CITY           SKY/WX    TMP DP  RH WIND       PRES   REMARKS
ABERDEEN       SUNNY     63  49  60 W13       30.01R
WATERTOWN      SUNNY     63  49  60 W10       30.02R
BROOKINGS      SUNNY     61  50  67 W12       30.09R
SISSETON         N/A     67  49  52 W22G32    29.93R
$$

SDZ017-020-022-023-036>040-048>070-291400-
SOUTHEAST SOUTH DAKOTA

CITY           SKY/WX    TMP DP  RH WIND       PRES   REMARKS
SIOUX FALLS    SUNNY     64  52  64 VRB7      30.11R
HURON          SUNNY     64  48  56 W9        30.07R
CHAMBERLAIN    SUNNY     64  47  53 W15       30.14R
MITCHELL       SUNNY     64  51  62 W12       30.11R
YANKTON        SUNNY     64  55  72 SW10      30.14R
$$

ABBREVIATIONS USED IN REMARKS
   TC - TEMPERATURE IN CELSIUS
  WCI - WIND CHILL INDEX
   HX - HEAT INDEX
  VSB - VISIBILITY



USA.gov is the U.S. government's official web portal to all federal, state and local government web resources and services.